Date,TemperatureHighF,TemperatureAvgF,TemperatureLowF,DewpointHighF,DewpointAvgF,DewpointLowF,HumidityHigh,HumidityAvg,HumidityLow,PressureMaxIn,PressureMinIn,WindSpeedMaxMPH,WindSpeedAvgMPH,GustSpeedMaxMPH,PrecipitationSumIn
2013-1-1,35.5,29.8,16.4,26.2,16.9,3.8,75,59,44,29.91,29.67,29,5,29,0.17
2013-1-2,28.0,16.8,7.6,17.0,7.1,-4.6,82,65,55,30.08,29.86,23,3,23,0.01
2013-1-3,24.8,11.0,0.5,7.0,-1.8,-7.1,81,57,32,30.12,29.95,14,2,16,0.00
2013-1-4,37.2,24.6,9.3,24.6,17.5,6.0,94,75,57,29.96,29.77,22,3,23,0.01
2013-1-5,41.1,31.1,18.5,25.0,20.7,15.0,88,66,42,30.23,29.80,20,3,20,0.04
2013-1-6,42.7,30.0,19.3,29.2,24.5,16.1,90,81,57,30.20,29.90,17,2,17,0.02
2013-1-7,37.3,28.3,17.9,29.2,21.3,14.4,97,77,49,30.38,29.92,15,2,16,0.00
2013-1-8,45.3,28.3,17.4,29.0,22.9,15.5,97,82,49,30.34,30.23,16,2,17,0.00
2013-1-9,43.1,32.7,18.9,34.4,27.0,17.5,96,81,57,30.38,29.96,24,2,24,0.00
2013-1-10,45.9,39.6,27.4,29.9,25.7,23.1,85,58,45,30.51,29.98,30,5,30,0.00
2013-1-11,39.4,31.8,22.8,35.5,27.8,20.8,97,86,68,30.50,30.20,8,0,9,0.14
2013-1-12,41.3,37.9,35.5,40.8,37.3,34.9,99,98,97,30.20,30.09,9,0,9,0.03
2013-1-13,48.5,42.5,37.8,48.2,42.2,37.3,100,99,98,30.12,29.98,9,1,9,0.00
2013-1-14,62.3,50.2,39.5,52.3,42.6,26.9,98,77,49,30.23,29.82,10,4,23,0.00
2013-1-15,40.9,35.3,28.3,29.8,26.4,24.0,91,71,55,30.29,30.19,3,1,9,0.00
2013-1-16,32.3,31.0,28.7,31.3,29.1,24.7,97,93,75,30.22,29.79,7,0,7,0.11
2013-1-17,40.6,31.9,26.3,34.9,26.2,12.2,98,81,51,30.08,29.79,24,2,24,0.27
2013-1-18,27.5,19.9,14.1,13.5,2.3,-3.3,65,46,33,30.42,30.03,21,4,22,0.00
2013-1-19,46.6,34.9,19.1,31.2,22.2,7.5,79,60,43,30.35,29.84,12,5,29,0.07
2013-1-20,52.6,39.5,27.3,32.5,25.8,11.6,79,59,34,29.88,29.49,32,6,33,0.00
2013-1-21,27.2,23.4,18.4,19.6,10.4,2.7,91,59,44,30.06,29.76,24,3,28,0.00
2013-1-22,24.0,18.6,10.1,19.2,9.0,0.2,94,68,41,30.04,29.73,24,3,24,0.00
2013-1-23,15.4,9.0,2.2,2.5,-7.0,-11.7,70,48,31,30.11,30.03,24,4,24,0.00
2013-1-24,17.6,8.9,-0.2,-4.7,-9.3,-12.6,57,43,31,30.19,30.03,25,5,25,0.00
2013-1-25,22.9,13.9,7.1,6.4,-5.8,-9.5,61,41,28,30.28,30.03,14,4,20,0.00
2013-1-26,23.7,16.0,9.9,10.5,2.3,-7.0,86,58,32,30.20,29.98,27,4,27,0.00
2013-1-27,29.7,19.0,10.7,4.0,1.6,-1.7,69,48,29,30.44,30.18,21,4,23,0.00
2013-1-28,30.2,22.3,14.7,23.7,12.2,0.1,94,67,35,30.42,30.00,11,0,11,0.00
2013-1-29,33.4,26.7,23.9,28.8,24.3,22.2,94,91,82,30.17,30.00,6,0,6,0.09
2013-1-30,60.3,46.5,31.7,57.3,45.3,30.7,100,96,88,30.13,29.41,18,3,26,0.18
2013-1-31,60.9,46.6,29.0,58.9,38.1,16.6,97,73,43,29.55,28.91,29,9,33,0.44
2013-2-1,32.8,27.1,21.1,19.0,10.9,4.9,68,51,37,30.05,29.54,26,6,26,0.00
2013-2-2,29.6,21.8,13.5,12.3,7.1,3.7,72,53,39,30.22,30.02,14,2,15,0.00
2013-2-3,25.7,23.4,18.0,21.8,19.2,12.2,93,84,57,30.03,29.70,10,1,11,0.01
2013-2-4,30.2,22.8,16.4,19.6,11.1,5.2,92,63,41,29.90,29.68,29,5,29,0.01
2013-2-5,29.1,23.5,18.8,21.4,11.8,5.7,88,61,47,30.00,29.89,15,1,15,0.00
2013-2-6,39.1,28.4,20.2,26.6,18.7,7.3,95,69,42,30.27,29.89,21,3,21,0.03
2013-2-7,27.9,21.6,12.7,10.0,3.6,-0.9,70,46,33,30.51,30.26,18,2,18,0.00
2013-2-8,28.6,21.9,16.3,27.5,18.4,10.4,97,87,55,30.47,29.62,27,2,27,0.00
2013-2-9,20.2,17.1,13.5,18.1,14.4,7.6,94,89,77,30.16,29.57,30,8,30,0.00
2013-2-10,37.1,19.4,2.2,20.9,10.4,-1.8,84,69,39,30.36,30.16,14,2,16,0.34
2013-2-11,36.4,26.2,9.5,35.5,23.9,5.4,98,91,75,30.32,29.58,9,0,11,0.11
2013-2-12,45.4,37.4,32.0,34.0,29.7,27.0,99,75,54,29.84,29.57,25,6,25,0.06
2013-2-13,42.6,33.5,23.7,27.6,24.6,20.7,90,71,50,29.83,29.67,12,2,15,0.00
2013-2-14,43.8,33.4,25.4,26.4,23.9,20.9,90,70,43,29.96,29.67,14,1,14,0.00
2013-2-15,51.2,36.5,22.7,34.5,29.2,20.2,96,77,51,29.97,29.85,20,2,20,0.00
2013-2-16,38.4,33.6,27.7,31.4,27.2,17.1,96,79,57,29.92,29.70,16,2,19,0.03
2013-2-17,28.8,20.8,15.2,17.4,10.2,1.4,89,65,44,29.70,29.35,31,8,33,0.00
2013-2-18,30.6,21.5,13.3,3.8,1.7,-1.8,57,43,27,30.12,29.64,34,7,34,0.00
2013-2-19,45.7,33.7,18.9,39.9,22.6,3.0,98,65,42,30.14,29.54,14,2,14,0.33
2013-2-20,38.7,31.7,25.4,38.2,21.7,13.0,98,68,45,29.74,29.50,26,6,26,0.01
2013-2-21,31.7,26.0,22.7,15.9,13.9,10.2,72,60,47,30.17,29.73,25,6,26,0.00
2013-2-22,40.3,28.4,18.9,25.5,19.8,15.1,88,71,45,30.37,30.16,13,2,15,0.00
2013-2-23,37.6,32.8,27.5,31.5,28.9,23.9,96,86,75,30.31,29.90,12,1,13,0.00
2013-2-24,35.2,32.8,29.7,34.7,32.0,29.0,98,97,96,29.90,29.67,13,1,18,0.56
2013-2-25,39.9,33.0,28.8,32.7,30.2,27.5,97,90,69,30.22,29.87,6,0,7,0.23
2013-2-26,42.2,34.2,27.2,35.3,29.4,26.2,98,84,58,30.31,30.14,11,1,11,0.00
2013-2-27,40.0,37.5,34.8,39.0,36.0,29.9,98,94,82,30.15,29.53,21,4,24,1.25
2013-2-28,47.6,36.8,32.5,37.6,34.3,32.0,98,91,66,29.61,29.50,6,1,12,0.00
2013-3-1,39.4,36.0,30.7,34.5,30.7,28.1,97,81,68,29.65,29.51,12,2,12,0.00
2013-3-2,42.7,36.1,27.9,31.5,28.1,25.1,90,73,62,29.65,29.59,12,2,12,0.00
2013-3-3,39.3,33.7,30.3,32.8,28.0,25.6,87,80,73,29.62,29.53,13,2,15,0.01
2013-3-4,38.2,33.2,29.4,28.9,24.7,22.0,89,71,57,29.72,29.55,23,6,24,0.00
2013-3-5,34.2,30.5,29.3,25.2,23.2,22.2,76,74,69,29.90,29.72,17,4,17,0.00
2013-3-6,38.6,35.5,31.8,35.3,33.0,30.3,96,91,80,30.10,30.02,19,3,26,0.21
2013-3-7,33.1,31.4,29.9,31.5,29.3,26.7,95,92,84,30.07,29.97,18,4,23,0.13
2013-3-8,38.1,31.7,28.7,32.8,28.9,24.4,97,90,69,30.13,29.93,19,3,19,0.14
2013-3-9,48.9,35.5,23.7,30.4,24.9,19.7,95,67,44,30.33,30.12,12,1,12,0.61
2013-3-10,45.6,30.5,19.2,32.6,26.3,17.8,98,86,59,30.39,30.28,10,1,10,0.00
2013-3-11,53.1,40.6,32.8,39.7,34.4,30.7,94,80,48,30.30,30.11,13,2,14,0.00
2013-3-12,54.6,47.9,40.2,52.7,46.4,38.9,99,95,86,30.13,29.69,20,2,20,0.30
2013-3-13,52.2,43.4,29.9,51.1,32.7,21.7,98,68,37,29.76,29.66,18,4,19,0.00
2013-3-14,36.1,30.5,21.7,24.4,17.2,7.6,80,58,44,29.80,29.67,21,5,25,0.00
2013-3-15,41.1,28.3,18.2,28.3,12.7,5.1,84,53,29,29.84,29.60,23,5,23,0.00
2013-3-16,37.5,31.6,26.9,27.4,16.8,9.7,82,55,34,29.85,29.63,18,3,18,0.00
2013-3-17,37.2,28.2,18.4,16.1,11.8,4.2,87,53,29,30.30,29.85,16,3,25,0.00
2013-3-18,39.6,27.1,13.6,25.9,11.1,2.4,89,52,27,30.44,30.22,15,2,15,0.00
2013-3-19,33.6,30.9,26.1,32.6,29.9,24.5,97,96,90,30.22,29.60,20,3,20,0.18
2013-3-20,37.4,29.5,23.5,25.5,22.8,19.7,95,77,55,29.79,29.67,25,4,27,0.55
2013-3-21,37.5,28.1,18.2,27.9,21.0,14.0,95,77,41,29.79,29.58,9,1,9,0.22
2013-3-22,40.2,32.3,25.0,25.8,21.0,17.0,95,64,42,29.71,29.58,20,3,20,0.02
2013-3-23,42.6,34.2,25.5,24.0,20.6,18.0,80,59,40,29.75,29.60,26,6,27,0.00
2013-3-24,46.9,37.2,30.3,28.1,24.6,21.1,85,61,42,29.79,29.70,17,3,19,0.00
2013-3-25,42.9,35.0,26.6,34.8,29.9,24.9,95,82,69,29.75,29.51,16,1,16,0.00
2013-3-26,50.4,40.5,32.5,30.0,25.8,21.1,81,58,34,29.75,29.52,16,3,16,0.00
2013-3-27,55.2,41.0,26.0,33.7,26.6,21.4,86,59,35,29.84,29.71,20,3,22,0.00
2013-3-28,47.4,40.1,34.9,38.7,34.1,30.5,95,80,53,29.98,29.84,11,2,15,0.04
2013-3-29,57.3,43.0,29.4,39.6,32.8,27.6,96,70,38,30.02,29.93,17,2,20,0.01
2013-3-30,56.6,44.9,31.1,34.1,26.6,18.6,89,53,24,30.07,29.97,16,2,16,0.00
2013-3-31,60.5,44.6,24.5,39.6,28.1,21.1,94,58,26,30.09,29.74,20,3,22,0.02
2013-4-2,40.4,33.6,27.7,18.6,14.1,10.6,56,45,33,29.90,29.75,30,7,32,0.00
2013-4-3,45.7,36.3,28.2,17.5,14.1,8.7,58,41,23,30.12,29.88,24,7,28,0.00
2013-4-4,55.8,41.6,27.3,25.0,18.3,14.1,67,41,21,30.27,30.00,14,4,19,0.00
2013-4-5,60.5,45.6,35.6,32.5,27.4,22.4,75,52,25,30.00,29.60,17,4,21,0.00
2013-4-6,45.0,36.0,26.7,25.6,13.1,7.0,65,40,21,30.31,29.85,18,4,28,0.00
2013-4-7,56.1,40.8,23.2,39.6,27.2,14.1,87,61,36,30.31,29.96,20,4,30,0.00
2013-4-8,64.2,51.1,38.0,43.5,39.2,35.1,97,67,35,30.07,29.91,11,2,13,0.00
2013-4-9,70.2,54.6,44.4,53.0,44.4,39.5,95,71,42,30.05,29.83,21,2,21,0.03
2013-4-10,61.6,50.1,44.5,51.2,45.7,41.8,97,86,64,30.00,29.83,8,1,9,0.40
2013-4-11,51.7,46.1,40.7,46.4,39.6,27.7,98,80,48,30.12,29.81,13,1,13,0.09
2013-4-12,41.5,37.4,35.1,36.8,34.2,30.3,97,89,67,30.16,29.77,20,2,20,0.51
2013-4-13,53.2,41.7,34.4,40.8,36.7,33.4,97,84,57,29.91,29.74,14,2,14,0.06
2013-4-14,53.5,44.6,34.4,40.3,34.0,28.0,97,69,42,30.18,29.88,20,3,21,0.00
2013-4-15,57.9,42.6,28.1,39.4,33.2,26.3,97,72,40,30.37,30.18,17,2,17,0.00
2013-4-16,66.5,51.5,34.6,51.7,42.4,33.3,97,73,49,30.38,30.01,24,4,24,0.00
2013-4-17,65.5,57.4,45.6,53.5,38.6,29.5,88,52,28,30.30,30.01,20,4,20,0.00
2013-4-18,61.4,50.6,36.7,44.0,34.8,30.1,83,56,38,30.41,30.12,19,3,19,0.00
2013-4-19,75.8,63.4,52.1,63.2,57.6,44.1,98,82,59,30.12,29.60,29,5,29,0.00
2013-4-20,67.7,53.2,43.7,63.7,41.9,24.1,97,69,41,30.19,29.56,23,5,23,0.56
2013-4-21,52.9,41.8,31.7,29.8,24.1,20.3,88,51,29,30.66,30.18,19,3,20,0.00
2013-4-22,53.9,40.9,28.9,35.9,30.9,25.6,96,71,36,30.74,30.58,17,2,17,0.00
2013-4-23,39.6,35.7,32.4,34.6,32.0,29.2,92,86,81,30.58,30.47,8,0,8,0.00
2013-4-24,74.1,55.2,40.6,54.4,46.6,39.8,98,76,34,30.11,29.75,10,3,21,0.01
2013-4-25,63.9,54.7,40.0,52.4,38.1,28.2,94,57,28,30.24,29.79,24,4,24,0.03
2013-4-26,61.4,47.7,33.2,41.4,35.6,31.1,92,66,38,30.40,30.24,14,2,14,0.00
2013-4-27,65.2,50.5,34.4,43.0,37.4,32.9,98,65,38,30.40,30.26,14,1,14,0.00
2013-4-28,69.5,53.2,35.0,44.8,37.9,30.2,97,60,32,30.31,30.19,17,2,17,0.00
2013-4-29,69.6,56.7,43.4,50.9,39.8,28.8,91,56,32,30.25,30.15,18,2,18,0.00
2013-4-30,69.8,56.2,40.3,40.3,32.6,23.6,83,45,23,30.34,30.22,13,1,13,0.00
2013-5-1,70.4,53.2,34.5,44.3,36.7,32.4,98,59,29,30.44,30.34,14,1,16,0.05
2013-5-2,78.4,52.6,38.0,49.5,41.1,36.4,97,70,26,30.47,30.32,13,1,20,0.00
2013-5-3,60.7,49.2,39.4,47.2,41.6,37.1,93,76,56,30.50,30.35,16,2,16,0.05
2013-5-4,61.6,48.0,35.4,47.0,38.1,26.8,99,73,29,30.35,30.27,13,1,15,0.00
2013-5-5,61.8,46.4,32.6,46.6,38.2,31.6,99,76,49,30.31,30.22,8,1,14,0.04
2013-5-6,70.2,50.6,33.2,51.9,43.2,31.9,98,79,42,30.27,30.12,16,1,16,0.05
2013-5-7,76.8,56.1,40.2,58.4,47.8,39.2,99,78,43,30.15,30.07,14,1,14,0.00
2013-5-8,74.6,61.9,50.4,63.9,57.7,49.3,99,87,60,30.17,30.02,7,2,22,0.05
2013-5-9,65.5,59.0,56.3,62.4,58.0,55.3,99,97,81,30.02,29.87,10,0,10,0.79
2013-5-10,78.7,63.8,54.9,62.8,57.6,54.6,100,83,47,29.93,29.86,12,1,15,0.04
2013-5-11,70.0,63.7,58.8,62.9,59.6,55.1,97,87,77,29.88,29.66,22,2,22,0.10
2013-5-12,71.6,60.5,48.6,60.8,52.2,31.1,98,77,41,29.78,29.52,21,2,22,0.18
2013-5-13,57.7,47.6,37.3,39.9,33.6,28.0,90,60,37,30.00,29.78,19,3,19,0.04
2013-5-14,57.7,47.9,35.6,38.8,34.0,29.6,93,61,38,30.03,29.94,17,2,21,0.00
2013-5-15,66.5,47.2,31.8,52.1,37.9,30.2,98,75,33,30.03,29.64,8,1,20,0.06
2013-5-16,80.0,65.4,46.2,52.2,44.5,34.7,98,54,25,29.79,29.59,31,4,31,0.00
2013-5-17,61.5,57.6,53.8,45.0,44.4,43.3,71,62,52,29.82,29.79,7,1,9,0.00
2013-5-18,71.2,56.3,39.1,53.4,45.0,38.1,99,70,33,30.28,30.18,5,1,16,0.00
2013-5-19,71.2,56.5,47.6,57.8,51.8,46.2,98,86,53,30.33,30.20,4,0,11,0.21
2013-5-20,81.0,66.4,55.2,67.8,61.2,54.7,99,85,59,30.19,29.88,6,1,13,0.16
2013-5-21,76.1,58.6,50.2,68.8,56.3,49.2,99,93,71,30.00,29.85,4,1,18,0.00
2013-5-22,64.5,54.6,49.6,60.5,53.2,48.8,99,95,85,30.05,29.84,4,0,16,0.58
2013-5-23,76.2,63.0,52.6,71.4,60.9,52.0,100,93,81,29.91,29.77,18,1,18,0.13
2013-5-24,71.5,62.4,49.0,68.3,60.8,48.4,99,95,81,29.80,29.61,12,1,13,0.43
2013-5-25,51.1,47.1,40.3,50.8,46.5,38.1,99,98,91,29.79,29.67,19,2,19,0.51
2013-5-26,56.5,47.0,39.1,45.7,40.7,37.5,98,80,59,30.06,29.68,26,3,26,0.20
2013-5-27,71.0,54.9,37.1,48.9,42.0,36.1,99,67,31,30.15,30.03,17,2,19,0.20
2013-5-28,73.0,57.0,39.3,52.9,45.9,38.5,100,72,35,30.21,30.13,11,0,11,0.00
2013-5-29,68.2,61.0,52.3,64.8,59.6,50.6,99,95,87,30.16,29.94,11,0,11,0.70
2013-5-30,87.7,73.6,61.4,72.7,66.2,61.1,100,80,47,30.05,29.96,16,2,17,0.00
2013-5-31,93.6,78.8,62.3,74.3,67.3,61.6,100,72,40,30.05,29.89,16,2,18,0.21
2013-6-1,92.9,80.2,64.7,73.0,67.5,62.3,96,68,38,29.93,29.80,16,2,16,0.00
2013-6-2,89.6,78.0,68.2,73.9,68.5,65.1,94,74,45,29.84,29.67,18,3,27,0.22
2013-6-3,77.0,68.4,58.4,70.7,63.3,47.1,99,85,58,29.82,29.71,14,1,15,0.81
2013-6-4,70.5,60.2,50.2,52.4,47.6,41.3,86,64,45,30.07,29.79,17,2,20,0.00
2013-6-5,74.7,60.1,46.6,55.3,49.7,45.0,98,71,40,30.16,30.06,11,1,12,0.19
2013-6-6,73.5,62.4,50.0,58.0,53.2,48.2,97,73,46,30.17,30.07,12,0,12,0.01
2013-6-7,58.5,54.6,52.7,56.2,53.8,52.2,99,97,86,30.09,29.80,13,1,13,2.05
2013-6-8,77.5,62.4,52.5,68.1,58.7,52.2,100,89,66,29.97,29.60,15,2,17,1.13
2013-6-9,78.8,66.0,53.7,62.7,58.0,52.9,100,78,49,30.13,29.97,13,1,17,0.22
2013-6-10,68.3,60.7,52.3,60.9,57.0,51.5,99,88,68,30.18,30.00,8,0,10,0.69
2013-6-11,61.4,57.1,54.8,58.7,56.2,54.2,99,97,88,30.00,29.55,11,1,11,0.93
2013-6-12,70.5,61.1,55.3,60.8,56.8,52.8,100,87,64,29.79,29.53,26,2,26,0.29
2013-6-13,68.5,56.6,49.5,61.0,54.3,48.6,99,92,66,29.79,29.67,8,0,10,0.49
2013-6-14,72.7,59.3,52.1,63.6,56.0,51.5,99,90,60,29.74,29.63,6,0,10,1.03
2013-6-15,78.0,64.8,52.7,56.6,51.9,44.8,98,67,32,29.90,29.74,17,1,17,0.00
2013-6-16,76.6,62.1,50.9,62.7,55.4,49.5,98,81,48,29.91,29.67,13,1,13,0.20
2013-6-17,84.8,67.4,56.5,67.7,61.8,55.5,99,85,48,29.87,29.74,17,1,17,0.66
2013-6-18,73.0,61.5,56.4,66.2,59.6,56.1,100,94,71,29.92,29.85,13,0,17,0.11
2013-6-19,75.7,63.1,51.3,58.7,54.4,47.8,100,77,44,30.12,29.89,11,1,11,0.37
2013-6-20,78.7,63.7,46.3,59.6,53.4,45.5,100,73,39,30.23,30.11,14,1,14,0.00
2013-6-21,84.7,70.3,56.1,67.8,59.9,53.6,97,73,37,30.22,30.15,12,1,12,0.16
2013-6-22,84.7,71.8,58.6,71.3,63.2,57.8,99,77,49,30.18,30.07,15,1,15,0.00
2013-6-23,89.2,76.6,62.6,76.6,67.9,60.0,93,75,61,30.12,29.94,16,2,16,0.19
2013-6-24,92.8,79.3,69.5,77.6,71.6,68.0,97,79,50,29.98,29.82,15,2,15,0.21
2013-6-25,91.2,78.7,68.1,76.8,70.6,66.6,97,78,53,29.89,29.67,17,2,17,0.01
2013-6-26,83.8,72.4,63.6,75.4,70.1,62.6,100,93,65,29.83,29.68,11,0,11,0.32
2013-6-27,70.9,64.1,59.8,68.2,63.3,59.4,100,97,90,29.85,29.74,7,0,8,0.15
2013-6-28,81.6,69.2,57.8,75.6,67.0,57.5,100,93,77,29.74,29.45,14,1,17,0.54
2013-6-29,84.8,75.3,70.4,73.8,70.1,67.6,97,85,62,29.69,29.48,17,1,17,0.00
2013-6-30,86.7,76.4,66.8,76.1,71.1,66.0,99,85,63,29.90,29.68,12,1,14,0.09
2013-7-1,79.8,73.7,71.0,77.5,72.3,70.0,100,95,84,30.05,29.89,9,0,11,1.33
2013-7-2,83.0,70.4,60.4,77.4,68.6,59.5,100,94,76,30.18,30.03,12,0,12,0.01
2013-7-3,88.1,73.7,60.3,78.0,69.3,59.5,100,87,66,30.18,30.08,14,2,16,0.16
2013-7-4,92.2,81.8,71.6,80.0,74.8,70.8,99,81,58,30.17,30.04,15,2,15,0.00
2013-7-5,93.0,83.5,73.3,80.9,75.4,72.0,98,78,56,30.11,29.99,14,2,15,0.13
2013-7-6,79.4,79.0,78.7,74.9,74.7,74.5,87,87,86,30.03,30.02,5,1,5,0.00
2013-7-7,90.8,77.3,64.3,80.8,71.0,62.8,99,82,58,29.98,29.87,4,0,11,0.12
2013-7-8,82.7,74.4,64.2,76.9,71.0,63.3,100,90,74,30.05,29.87,10,1,12,0.16
2013-7-9,72.0,67.6,64.4,68.5,65.8,63.5,99,94,87,30.08,30.02,7,0,7,0.01
2013-7-10,84.5,72.7,65.4,79.0,70.6,63.8,100,93,78,30.05,29.76,12,0,12,0.14
2013-7-11,82.3,75.2,69.7,77.1,73.0,68.8,100,93,77,29.91,29.73,8,0,9,0.05
2013-7-12,77.7,70.2,63.7,69.6,62.4,57.8,99,78,53,30.17,29.90,18,1,18,0.15
2013-7-13,64.8,63.7,63.1,62.4,61.3,60.4,94,92,90,30.21,30.17,4,0,4,0.00
2013-7-14,90.3,77.6,66.7,78.4,72.6,65.8,100,86,58,30.27,30.16,3,0,10,0.12
2013-7-15,90.8,78.7,67.7,78.7,72.9,67.4,100,84,56,30.17,30.06,9,0,11,0.15
2013-7-16,92.4,77.9,65.7,77.6,70.7,65.1,100,81,53,30.13,30.07,4,0,10,0.27
2013-7-17,94.5,80.9,67.5,77.7,72.6,66.8,100,78,48,30.14,29.94,11,1,11,0.20
2013-7-18,93.4,80.9,73.3,78.2,73.4,69.4,97,79,48,29.98,29.91,14,1,15,0.00
2013-7-19,95.6,83.6,70.3,79.5,75.2,69.2,100,78,51,29.91,29.67,22,3,22,0.19
2013-7-20,91.8,82.5,73.7,80.4,74.4,64.5,97,78,59,29.77,29.60,15,2,17,0.00
2013-7-21,80.8,72.7,64.2,70.6,65.9,61.5,99,80,58,29.96,29.77,12,0,12,0.17
2013-7-22,82.9,72.0,64.5,73.5,68.1,63.6,99,88,68,29.99,29.86,10,0,11,0.15
2013-7-23,77.9,71.0,68.0,77.1,70.3,67.0,100,98,92,29.86,29.51,4,0,17,2.01
2013-7-24,84.7,76.0,69.7,76.3,71.3,65.9,100,87,61,29.75,29.55,16,1,16,0.16
2013-7-25,64.1,60.0,57.9,58.9,55.3,50.6,99,85,69,30.08,29.94,5,0,12,0.45
2013-7-26,69.3,64.3,59.0,68.0,63.5,58.4,100,97,89,30.04,29.91,14,1,14,0.39
2013-7-27,83.8,70.8,57.5,71.5,64.7,57.1,100,83,55,30.02,29.95,12,1,12,0.01
2013-7-28,79.5,69.6,62.8,73.9,67.2,61.5,99,92,78,30.00,29.95,9,0,9,0.22
2013-7-29,82.7,71.7,65.4,74.6,69.1,63.8,100,92,70,30.02,29.93,30,0,30,0.74
2013-7-30,80.9,69.6,59.0,67.3,63.4,57.8,100,83,49,30.07,30.00,11,1,12,0.00
2013-7-31,81.4,68.9,57.3,67.7,61.7,56.7,100,80,51,30.11,30.01,7,0,9,0.09
2013-8-1,80.7,68.9,59.0,69.7,63.9,58.3,100,85,56,30.02,29.84,13,1,13,0.02
2013-8-2,81.4,69.9,62.8,72.0,65.0,59.8,100,86,57,29.85,29.75,16,1,17,0.52
2013-8-3,79.2,68.3,60.8,68.7,63.9,60.2,100,87,60,29.84,29.73,15,2,15,0.00
2013-8-4,79.3,65.5,55.2,65.3,60.2,54.4,99,85,53,29.86,29.73,11,1,13,0.12
2013-8-5,75.3,62.1,51.3,57.5,52.2,45.3,100,74,36,30.02,29.85,18,2,20,0.02
2013-8-6,78.7,62.8,47.2,60.2,53.5,46.4,100,75,42,30.13,30.02,7,0,7,0.00
2013-8-7,80.2,66.1,53.1,64.9,57.9,52.4,100,77,43,30.16,30.07,11,0,11,0.07
2013-8-8,80.3,71.9,63.7,73.6,67.3,56.6,95,86,75,30.10,29.97,14,1,14,0.01
2013-8-9,74.0,72.0,70.8,74.0,71.2,69.5,100,97,93,29.99,29.71,12,1,15,0.28
2013-8-10,83.3,72.1,61.1,70.9,65.2,56.8,100,81,47,29.98,29.75,17,2,17,0.00
2013-8-11,79.3,65.5,51.9,65.4,58.0,51.1,100,79,48,30.05,29.96,11,1,12,0.12
2013-8-12,81.5,67.8,56.2,65.7,60.2,55.5,100,80,47,30.00,29.88,12,1,12,0.11
2013-8-13,73.1,66.9,61.6,69.9,64.9,60.5,99,93,76,29.89,29.64,6,0,6,0.03
2013-8-14,74.7,65.5,56.8,62.9,57.3,51.8,99,77,53,29.93,29.63,21,3,21,0.14
2013-8-15,76.5,62.9,50.3,60.7,54.3,49.4,98,76,46,30.08,29.93,15,1,16,0.00
2013-8-16,78.8,63.9,50.7,62.9,56.7,49.8,100,80,48,30.17,30.07,13,1,13,0.10
2013-8-17,79.7,63.3,52.6,66.8,58.3,52.0,100,85,56,30.25,30.16,7,0,7,0.00
2013-8-18,79.6,67.0,54.9,68.5,61.9,54.3,100,85,58,30.25,30.05,8,0,8,0.10
2013-8-19,81.4,69.4,57.8,68.6,63.0,57.2,100,82,57,30.05,29.92,12,1,13,0.12
2013-8-20,85.9,71.7,59.1,70.9,64.7,58.2,100,81,50,30.06,29.95,9,0,9,0.00
2013-8-21,87.9,72.6,58.8,73.0,65.5,58.2,100,81,50,30.11,29.99,9,1,10,0.11
2013-8-22,87.8,74.4,62.2,74.4,68.5,61.6,99,83,54,30.00,29.78,14,1,15,0.00
2013-8-23,79.8,70.9,59.1,69.8,62.6,52.3,97,77,50,30.11,29.79,13,1,13,0.10
2013-8-24,77.9,62.8,50.5,57.9,51.8,47.5,98,71,38,30.31,30.10,7,0,7,0.00
2013-8-25,82.3,64.8,48.1,63.0,54.9,47.3,100,74,37,30.34,30.14,11,1,11,0.14
2013-8-26,80.7,70.3,61.9,70.4,64.5,57.1,95,82,65,30.15,29.83,16,1,19,0.10
2013-8-27,84.5,73.8,64.5,73.9,68.1,63.3,98,84,61,29.87,29.80,9,0,11,0.00
2013-8-28,86.0,71.1,60.3,73.6,66.0,59.7,100,86,57,29.95,29.82,9,0,9,0.11
2013-8-29,66.0,63.9,60.5,64.8,61.9,58.7,97,93,88,30.06,29.93,12,1,12,0.00
2013-8-30,83.3,69.5,58.7,72.2,64.7,57.6,99,86,62,30.00,29.78,10,1,11,0.13
2013-8-31,80.7,73.1,67.9,77.2,71.4,66.7,100,95,84,29.80,29.75,9,0,10,0.43
2013-9-1,84.3,74.6,69.8,77.1,72.2,68.9,98,93,75,29.86,29.75,12,1,12,0.13
2013-9-2,78.0,73.9,70.7,76.7,72.8,70.1,99,96,88,29.84,29.67,11,0,11,0.27
2013-9-3,81.7,72.3,60.4,73.3,69.6,59.0,100,92,68,29.77,29.66,8,1,12,0.10
2013-9-4,80.7,66.9,55.3,64.9,59.3,54.8,100,79,49,29.88,29.76,16,2,17,0.12
2013-9-5,69.7,60.8,48.9,62.5,54.6,45.5,98,82,47,30.12,29.82,12,1,16,0.05
2013-9-6,69.8,54.6,40.8,51.3,45.8,39.8,99,76,41,30.22,30.06,10,1,10,0.12
2013-9-7,79.7,61.7,44.9,62.2,53.3,44.1,99,77,43,30.06,29.82,12,1,12,0.00
2013-9-8,73.1,62.3,47.3,64.4,54.4,44.0,96,77,45,30.07,29.72,17,2,20,0.12
2013-9-9,70.1,55.4,40.2,54.2,46.8,39.2,99,75,43,30.21,30.06,9,1,11,0.11
2013-9-10,73.3,64.8,53.8,71.3,62.5,50.7,98,92,83,30.13,29.99,18,1,18,0.12
2013-9-11,94.4,79.9,67.5,80.9,73.3,66.9,100,82,52,30.04,29.89,21,2,24,0.11
2013-9-12,87.3,76.0,66.6,77.4,70.6,65.7,99,84,64,29.92,29.63,20,1,20,0.96
2013-9-13,77.8,67.4,56.7,70.7,66.0,55.3,100,95,73,29.73,29.53,9,0,10,0.71
2013-9-14,67.9,59.1,50.3,59.4,54.8,49.2,97,86,66,30.03,29.73,12,1,13,0.01
2013-9-15,71.8,57.1,45.0,58.1,50.9,44.5,100,82,50,30.14,30.01,13,1,13,0.12
2013-9-16,66.3,56.1,46.6,60.1,51.7,39.5,97,86,69,30.23,29.98,14,1,15,0.01
2013-9-17,63.6,49.4,37.0,50.4,41.9,35.7,98,78,46,30.40,30.23,13,1,13,0.00
2013-9-18,74.0,54.5,37.8,55.1,45.9,37.0,100,77,36,30.30,30.10,12,1,12,0.00
2013-9-19,78.7,57.4,43.5,63.0,51.3,42.7,100,83,46,30.11,30.00,6,0,7,0.00
2013-9-20,80.0,60.9,46.3,64.2,54.6,45.7,100,83,48,30.06,29.96,9,0,9,0.00
2013-9-21,72.0,56.8,50.9,64.4,55.3,50.1,100,95,73,30.01,29.87,13,1,14,0.01
2013-9-22,71.2,63.9,51.7,67.6,58.6,45.1,98,84,58,29.81,29.57,7,2,19,0.63
2013-9-23,61.8,51.3,43.6,48.5,43.9,40.4,94,77,57,29.98,29.81,7,2,19,0.00
2013-9-24,65.1,51.1,39.3,51.0,44.0,38.0,97,79,50,29.97,29.80,7,1,16,0.00
2013-9-25,67.4,53.1,41.3,56.0,48.2,40.5,99,85,57,29.97,29.85,3,0,10,0.00
2013-9-26,67.9,56.7,49.5,55.2,50.9,47.8,97,82,54,30.10,29.97,3,0,9,0.00
2013-9-27,65.8,57.0,48.1,57.5,52.9,47.0,97,87,67,30.24,30.11,2,0,9,0.00
2013-9-28,73.5,56.1,43.9,60.3,51.0,43.4,100,85,55,30.31,30.23,8,0,8,0.00
2013-9-29,69.8,54.2,44.5,56.3,49.5,43.4,100,86,43,30.25,30.10,9,0,9,0.00
2013-9-30,70.0,54.8,45.8,55.8,50.2,45.3,99,87,50,30.11,29.94,7,0,7,0.01
2013-10-1,76.3,57.8,44.1,61.0,51.8,43.3,100,84,46,29.95,29.82,10,0,12,0.00
2013-10-2,80.2,63.4,49.9,65.9,57.7,49.4,100,83,56,29.92,29.79,17,2,17,0.00
2013-10-3,77.8,60.8,49.6,59.3,53.9,48.8,99,81,40,30.06,29.92,10,0,10,0.00
2013-10-4,60.7,55.1,48.5,59.8,54.2,47.5,99,97,95,30.07,30.01,3,0,3,0.29
2013-10-5,68.0,60.1,54.0,61.2,57.3,53.7,100,91,73,30.10,30.03,2,0,7,0.00
2013-10-6,58.2,55.3,52.4,56.8,54.7,51.6,99,98,94,30.22,30.09,2,0,8,0.30
2013-10-7,78.0,65.2,56.1,72.0,62.9,55.8,100,93,74,30.11,29.78,8,2,23,0.06
2013-10-8,65.5,54.9,42.5,56.8,47.2,40.3,97,78,46,30.36,29.87,5,1,14,0.00
2013-10-9,63.4,48.8,39.3,50.6,43.5,38.5,98,84,54,30.46,30.35,2,0,10,0.01
2013-10-10,61.9,50.5,39.4,53.8,47.7,38.6,100,91,71,30.35,30.17,4,0,7,0.00
2013-10-11,71.9,55.6,44.7,54.9,46.8,33.7,99,77,26,30.17,30.07,6,0,8,0.00
2013-10-12,57.2,52.4,45.9,55.8,51.0,44.8,99,95,90,30.38,30.13,11,0,11,0.00
2013-10-13,60.5,49.4,38.8,52.9,45.6,37.6,100,88,60,30.43,30.36,9,0,9,0.00
2013-10-14,65.9,48.1,33.5,50.3,42.3,32.8,100,84,41,30.39,30.22,7,0,9,0.01
2013-10-15,62.8,54.7,48.3,56.3,51.3,47.2,99,89,74,30.24,30.15,6,0,7,0.00
2013-10-16,60.7,54.3,47.2,56.1,52.3,46.3,99,93,78,30.16,29.89,6,0,8,0.00
2013-10-17,74.5,59.3,50.6,62.1,54.9,50.1,100,87,54,29.90,29.69,17,1,17,0.01
2013-10-18,67.7,59.2,45.4,60.8,52.2,42.1,99,80,49,29.88,29.58,20,2,23,0.07
2013-10-19,67.6,52.6,37.5,48.8,43.2,36.4,99,73,42,29.95,29.72,12,1,14,0.00
2013-10-20,62.2,53.3,37.2,49.8,42.3,34.6,96,69,42,29.99,29.66,21,3,21,0.00
2013-10-21,67.3,49.0,33.0,47.6,40.3,31.9,98,75,42,30.10,29.97,14,1,14,0.01
2013-10-22,64.0,51.7,40.7,53.6,45.4,38.2,99,80,61,29.97,29.68,17,1,21,0.00
2013-10-23,51.7,43.4,33.0,39.7,36.3,31.6,97,77,53,29.78,29.57,11,0,12,0.00
2013-10-24,53.7,43.2,31.3,37.6,31.9,27.7,97,66,41,29.86,29.61,16,3,24,0.00
2013-10-25,49.4,38.6,29.0,36.7,30.3,26.0,97,74,46,30.12,29.86,18,1,18,0.00
2013-10-26,54.4,40.5,25.7,36.8,29.8,24.3,98,70,36,30.13,29.85,21,3,21,0.00
2013-10-27,55.1,46.2,36.4,40.8,36.1,30.8,94,70,44,30.04,29.78,19,3,21,0.05
2013-10-28,58.5,41.6,28.8,39.6,31.7,25.2,97,71,43,30.33,30.03,24,2,24,0.00
2013-10-29,49.6,33.9,24.2,32.4,25.3,19.7,95,73,35,30.43,30.33,4,0,9,0.00
2013-10-30,47.7,35.9,27.9,41.8,33.3,25.9,96,91,76,30.35,30.17,4,0,4,0.05
2013-10-31,60.2,44.6,28.9,58.5,43.6,27.9,99,96,88,30.23,29.76,14,1,15,0.15
2013-11-1,70.4,64.0,56.7,64.0,59.0,52.7,98,84,68,29.76,29.41,33,6,39,0.04
2013-11-2,66.8,54.1,43.3,52.8,46.0,42.0,98,77,43,29.70,29.56,17,1,18,0.00
2013-11-3,50.8,40.1,27.9,47.7,30.5,17.8,94,70,41,30.40,29.69,6,1,14,0.00
2013-11-4,43.2,30.8,22.5,22.3,19.6,16.4,89,66,36,30.68,30.40,11,0,11,0.00
2013-11-5,50.7,35.2,22.2,33.7,27.9,19.6,94,77,48,30.70,30.49,10,1,10,0.00
2013-11-6,61.6,49.1,35.5,49.5,41.5,32.3,93,77,51,30.49,30.00,15,2,17,0.00
2013-11-7,64.6,53.6,37.3,58.2,50.2,33.4,96,88,75,30.01,29.63,21,2,21,0.15
2013-11-8,47.8,38.0,29.2,35.0,28.4,23.3,91,69,50,30.06,29.78,30,3,30,0.01
2013-11-9,44.4,37.6,28.1,30.0,25.3,22.5,81,62,44,30.18,30.01,16,2,17,0.00
2013-11-10,52.7,44.3,38.0,44.9,37.1,29.7,97,76,59,30.01,29.71,25,2,25,0.06
2013-11-11,52.0,44.5,38.0,33.7,29.7,26.7,73,56,40,30.07,29.81,20,4,24,0.00
2013-11-12,48.1,34.2,23.3,39.0,24.9,16.5,93,69,56,30.16,29.85,23,3,23,0.12
2013-11-13,35.4,26.8,19.8,19.6,15.6,11.6,86,64,42,30.27,30.12,18,2,18,0.00
2013-11-14,51.4,36.6,25.8,28.2,22.8,16.0,76,59,36,30.13,30.00,19,2,19,0.00
2013-11-15,60.2,41.5,25.6,32.0,24.5,19.7,85,56,21,30.17,30.07,13,1,15,0.00
2013-11-16,61.1,42.9,30.5,34.5,31.0,26.4,90,67,27,30.30,30.15,8,0,8,0.00
2013-11-17,53.6,42.4,28.9,53.3,39.8,27.2,99,91,78,30.30,29.82,6,0,9,0.02
2013-11-18,65.5,57.5,47.4,61.8,48.9,32.0,100,75,44,29.82,29.49,22,4,22,0.23
2013-11-19,47.9,38.4,30.3,32.5,23.3,16.5,63,54,43,30.25,29.61,29,5,29,0.00
2013-11-20,41.7,30.8,20.7,20.0,16.3,13.8,82,56,35,30.61,30.25,17,2,19,0.00
2013-11-21,48.0,30.6,16.8,28.4,20.8,14.5,94,70,35,30.62,30.34,6,1,13,0.00
2013-11-22,44.5,40.1,34.4,44.0,38.3,26.7,99,93,72,30.34,29.78,5,0,5,0.25
2013-11-23,44.2,38.3,28.8,43.3,27.7,9.8,99,67,43,29.89,29.74,25,4,25,0.01
2013-11-24,29.2,23.6,19.0,16.9,5.3,-2.0,76,46,32,30.16,29.75,31,8,32,0.00
2013-11-25,31.7,23.9,15.4,15.5,3.0,-4.6,55,41,23,30.34,30.16,18,3,19,0.00
2013-11-26,37.5,33.3,29.5,33.4,23.3,14.9,96,68,49,30.32,30.02,12,2,13,0.03
2013-11-27,62.2,49.4,34.4,61.2,48.5,33.1,100,96,86,30.03,29.18,28,4,28,1.06
2013-11-28,37.3,30.0,21.2,33.5,17.6,7.6,86,61,39,30.41,29.41,28,5,31,0.00
2013-11-29,32.0,23.5,16.5,17.4,11.7,6.4,91,62,37,30.72,30.40,18,2,18,0.00
2013-11-30,34.2,21.9,9.9,23.9,15.1,7.5,92,76,55,30.78,30.40,9,1,9,0.00
2013-12-1,36.4,33.2,29.2,35.7,31.2,24.1,98,92,79,30.40,29.98,10,0,10,0.05
2013-12-2,38.0,36.5,35.4,37.7,36.1,34.9,99,98,98,29.99,29.89,6,0,6,0.01
2013-12-3,47.7,36.7,29.8,39.1,33.9,28.1,99,90,64,29.92,29.82,9,1,10,0.00
2013-12-4,41.4,32.2,25.4,29.9,27.1,24.3,98,83,59,30.18,29.92,14,1,14,0.00
2013-12-5,42.7,36.9,26.1,41.8,35.6,24.5,99,95,91,30.19,29.88,6,0,6,0.01
2013-12-6,52.6,45.1,32.5,52.6,42.6,31.4,100,91,67,30.14,29.82,16,1,16,0.07
2013-12-7,36.9,31.2,22.7,34.5,27.8,20.1,98,88,65,30.43,30.05,14,1,14,0.00
2013-12-8,29.0,24.9,18.0,21.4,18.9,16.1,94,79,61,30.58,30.42,7,0,8,0.00
2013-12-9,34.4,30.7,24.6,33.9,28.8,16.8,98,93,65,30.48,29.85,8,0,8,0.00
2013-12-10,32.8,30.0,23.7,31.8,27.6,13.9,99,91,61,29.96,29.75,19,2,20,0.00
2013-12-11,32.6,24.4,17.1,19.6,16.8,14.4,92,73,51,30.18,29.96,23,4,27,0.00
2013-12-12,24.4,17.7,10.3,18.7,8.0,0.4,92,68,37,30.25,30.03,21,2,21,0.00
2013-12-13,29.2,19.3,10.6,20.1,10.9,1.0,85,70,55,30.39,29.96,23,4,23,0.00
2013-12-14,17.2,11.6,7.8,15.3,2.5,-4.2,92,67,53,30.60,30.15,16,2,16,0.00
2013-12-15,32.3,24.2,16.6,31.7,22.9,14.7,98,95,92,30.16,29.41,16,2,17,0.00
2013-12-16,27.7,20.7,10.7,19.8,13.2,5.1,95,74,50,30.18,29.71,24,4,24,0.03
2013-12-17,17.9,9.2,-4.8,16.2,5.4,-7.9,93,85,62,30.27,29.93,21,1,21,0.00
2013-12-18,34.1,23.1,14.0,23.1,18.2,11.6,92,82,60,30.04,29.85,19,3,19,0.14
2013-12-19,41.8,30.1,22.7,26.1,23.3,18.9,92,77,51,30.08,29.92,23,3,24,0.25
2013-12-20,52.6,37.3,26.3,37.4,31.2,24.3,95,80,54,30.09,29.87,11,1,13,0.23
2013-12-21,57.9,45.4,38.6,48.2,39.8,33.2,94,81,65,29.93,29.82,10,1,13,0.00
2013-12-22,47.6,37.0,31.6,46.2,36.3,31.1,99,98,93,30.01,29.77,15,1,15,0.02
2013-12-23,34.4,32.0,30.3,34.2,31.6,29.8,99,99,98,30.07,29.93,7,0,8,0.43
2013-12-24,34.6,30.2,24.2,34.2,23.9,13.8,99,78,57,30.17,30.02,15,2,19,0.00
2013-12-25,25.2,16.9,11.0,15.0,6.3,0.2,85,63,45,30.53,30.17,21,2,21,0.00
2013-12-26,31.5,21.1,12.5,28.8,17.8,9.0,95,87,79,30.49,30.06,5,0,8,0.00
2013-12-27,32.4,23.6,14.2,22.7,18.8,12.2,96,82,64,30.25,30.16,16,2,16,0.04
2013-12-28,46.9,30.2,19.2,29.8,24.1,16.9,94,80,49,30.18,29.95,18,2,19,0.02
2013-12-29,40.4,32.9,25.3,36.7,30.7,23.5,98,92,71,30.01,29.40,17,1,17,0.90
2013-12-30,41.1,31.5,15.5,36.2,24.1,5.8,98,76,48,30.15,29.48,26,3,26,0.01
2013-12-31,23.4,16.0,10.3,13.4,5.1,-2.3,85,62,45,30.15,30.00,14,1,14,0.00
2014-1-1,26.5,18.8,11.7,12.5,8.6,6.0,84,65,45,30.36,30.15,24,2,24,0.00
2014-1-2,18.3,9.1,-1.3,14.6,6.0,-4.9,90,87,83,30.34,29.85,21,2,21,0.00